Voltar ao catálogo

THORAD DELTA 1 DEB

AtivoLEO
NORAD 8593·DEBRIS·🇺🇸 United States

Lançado Nov 15, 1974 de Vandenberg Space Force Base

Loading…

Próximas Passagens (próximas 24 horas)

TLE

AtualizadoSource: Space-Track

Época: Sep 14, 2026, 08:57 UTC

1 08593U 74089DG  26257.37334078 -.00000050  00000-0 -75020-6 0  9997
2 08593 101.9235 212.9334 0223450 312.1634 203.8951 12.71148432403422

Acompanhe THORAD DELTA 1 DEB em tempo real com AllMySat

Download on the App Store